| time (UTC) | temp C | wind direction | speed KPH | gust KPH | rain 1hr cm | rain 24hr cm | rain mn cm | humidity % | barometer mb |
| 20260503051537 | 0 | 0 | 0.0 | 3.2 | 0.00 | 0.03 | 0.00 | 85 | 1012.5 |
| 20260503051025 | 0 | 352 | 0.0 | 3.2 | 0.00 | 0.03 | 0.00 | 85 | 1012.5 |
| 20260503050524 | 0 | 352 | 0.0 | 3.2 | 0.00 | 0.03 | 0.00 | 85 | 1012.7 |
| 20260503050043 | 0 | 352 | 1.6 | 3.2 | 0.00 | 0.03 | 0.00 | 85 | 1012.8 |
| 20260503045525 | 0 | 0 | 0.0 | 1.6 | 0.00 | 0.05 | 0.00 | 85 | 1012.9 |
| 20260503045027 | 0 | 0 | 0.0 | 1.6 | 0.00 | 0.05 | 0.00 | 85 | 1012.8 |
| 20260503044544 | 0 | 352 | 0.0 | 1.6 | 0.00 | 0.05 | 0.00 | 85 | 1012.9 |
| 20260503044029 | 0 | 0 | 0.0 | 1.6 | 0.00 | 0.05 | 0.00 | 85 | 1013.0 |
| 20260503043524 | 0 | 352 | 0.0 | 1.6 | 0.00 | 0.05 | 0.00 | 85 | 1013.0 |
| 20260503043038 | 0 | 352 | 0.0 | 1.6 | 0.00 | 0.05 | 0.00 | 85 | 1013.0 |
| 20260503042525 | 0 | 352 | 0.0 | 1.6 | 0.00 | 0.05 | 0.00 | 84 | 1013.0 |
| 20260503042025 | 0 | 352 | 0.0 | 3.2 | 0.00 | 0.05 | 0.00 | 84 | 1013.1 |
| 20260503041539 | 0 | 352 | 0.0 | 3.2 | 0.00 | 0.05 | 0.00 | 84 | 1013.1 |
| 20260503041025 | 0 | 352 | 1.6 | 3.2 | 0.00 | 0.05 | 0.00 | 84 | 1013.2 |
| 20260503040524 | 0 | 352 | 1.6 | 3.2 | 0.00 | 0.05 | 0.00 | 84 | 1013.1 |
| 20260503040048 | 0 | 352 | 1.6 | 3.2 | 0.00 | 0.05 | 0.00 | 84 | 1013.2 |
| 20260503035524 | 0 | 0 | 0.0 | 3.2 | 0.00 | 0.10 | 0.05 | 84 | 1013.1 |
| 20260503035027 | 0 | 0 | 1.6 | 3.2 | 0.00 | 0.10 | 0.05 | 84 | 1013.2 |
| 20260503034545 | 0 | 352 | 0.0 | 3.2 | 0.00 | 0.10 | 0.05 | 84 | 1013.2 |
| 20260503034025 | 0 | 352 | 0.0 | 3.2 | 0.00 | 0.10 | 0.05 | 83 | 1013.2 |
| 20260503033526 | 0 | 352 | 0.0 | 3.2 | 0.00 | 0.10 | 0.05 | 83 | 1013.3 |
| 20260503033042 | 0 | 352 | 0.0 | 3.2 | 0.00 | 0.10 | 0.05 | 83 | 1013.3 |
| 20260503032525 | 0 | 352 | 0.0 | 3.2 | 0.00 | 0.10 | 0.05 | 82 | 1013.2 |
| 20260503032025 | 0 | 0 | 0.0 | 6.4 | 0.00 | 0.10 | 0.05 | 82 | 1013.2 |
| 20260503031548 | 0 | 0 | 0.0 | 6.4 | 0.00 | 0.10 | 0.05 | 82 | 1013.2 |
| 20260503031025 | 0 | 352 | 1.6 | 6.4 | 0.00 | 0.10 | 0.05 | 82 | 1013.2 |
| 20260503030527 | 0 | 0 | 1.6 | 3.2 | 0.00 | 0.10 | 0.05 | 82 | 1013.3 |
| 20260503030039 | 0 | 310 | 1.6 | 3.2 | 0.00 | 0.10 | 0.05 | 82 | 1013.2 |
| 20260503025527 | 0 | 310 | 0.0 | 3.2 | 0.00 | 0.15 | 0.05 | 82 | 1013.2 |
| 20260503025025 | 0 | 0 | 0.0 | 3.2 | 0.00 | 0.15 | 0.05 | 81 | 1013.2 |
| 20260503024536 | 0 | 0 | 0.0 | 0.0 | 0.00 | 0.15 | 0.05 | 81 | 1013.2 |
| 20260503024025 | 0 | 0 | 0.0 | 0.0 | 0.00 | 0.15 | 0.05 | 80 | 1013.3 |
| 20260503023525 | 0 | 0 | 0.0 | 1.6 | 0.00 | 0.15 | 0.05 | 80 | 1013.2 |
| 20260503023046 | 1 | 0 | 0.0 | 3.2 | 0.00 | 0.15 | 0.05 | 79 | 1013.2 |
| 20260503022525 | 1 | 0 | 0.0 | 3.2 | 0.00 | 0.15 | 0.05 | 79 | 1013.2 |
| 20260503022024 | 1 | 310 | 1.6 | 3.2 | 0.00 | 0.15 | 0.05 | 79 | 1013.2 |
| 20260503021543 | 1 | 310 | 0.0 | 3.2 | 0.00 | 0.15 | 0.05 | 79 | 1013.2 |
| 20260503021025 | 1 | 0 | 0.0 | 1.6 | 0.00 | 0.15 | 0.05 | 79 | 1013.3 |
| 20260503020525 | 1 | 0 | 0.0 | 3.2 | 0.00 | 0.15 | 0.05 | 79 | 1013.3 |
| 20260503020046 | 1 | 0 | 0.0 | 4.8 | 0.00 | 0.15 | 0.05 | 78 | 1013.2 |
| 20260503015525 | 1 | 310 | 0.0 | 8.0 | 0.00 | 0.23 | 0.05 | 78 | 1013.2 |
| 20260503015022 | 1 | 310 | 1.6 | 8.0 | 0.00 | 0.23 | 0.05 | 78 | 1013.2 |
| 20260503014538 | 1 | 313 | 3.2 | 8.0 | 0.00 | 0.23 | 0.05 | 77 | 1013.2 |
| 20260503014025 | 1 | 291 | 1.6 | 3.2 | 0.00 | 0.23 | 0.05 | 77 | 1013.2 |
| 20260503013527 | 2 | 291 | 0.0 | 6.4 | 0.00 | 0.23 | 0.05 | 77 | 1013.2 |
| 20260503013039 | 2 | 0 | 0.0 | 6.4 | 0.00 | 0.23 | 0.05 | 77 | 1013.2 |
| 20260503012524 | 2 | 0 | 1.6 | 9.7 | 0.00 | 0.23 | 0.05 | 76 | 1013.2 |
| 20260503012027 | 2 | 316 | 3.2 | 9.7 | 0.00 | 0.23 | 0.05 | 76 | 1013.3 |
| 20260503011550 | 2 | 301 | 3.2 | 8.0 | 0.00 | 0.23 | 0.05 | 76 | 1013.2 |
| 20260503011024 | 2 | 340 | 1.6 | 6.4 | 0.00 | 0.23 | 0.05 | 77 | 1013.2 |
| 20260503010524 | 2 | 321 | 0.0 | 6.4 | 0.00 | 0.23 | 0.05 | 77 | 1013.2 |
| 20260503010043 | 2 | 0 | 0.0 | 6.4 | 0.00 | 0.23 | 0.05 | 76 | 1013.2 |
| 20260503005524 | 2 | 298 | 1.6 | 9.7 | 0.00 | 0.30 | 0.05 | 75 | 1013.1 |
| 20260503005027 | 2 | 306 | 1.6 | 9.7 | 0.00 | 0.30 | 0.05 | 76 | 1013.0 |
| 20260503004539 | 2 | 311 | 0.0 | 4.8 | 0.00 | 0.30 | 0.05 | 76 | 1013.0 |
| 20260503004024 | 2 | 319 | 0.0 | 9.7 | 0.00 | 0.30 | 0.05 | 75 | 1013.0 |
| 20260503003523 | 2 | 321 | 3.2 | 11.3 | 0.00 | 0.30 | 0.05 | 74 | 1013.0 |
| 20260503003036 | 3 | 0 | 1.6 | 11.3 | 0.00 | 0.30 | 0.05 | 74 | 1013.0 |
| 20260503002527 | 3 | 313 | 3.2 | 9.7 | 0.00 | 0.30 | 0.05 | 73 | 1013.0 |
| 20260503002024 | 3 | 289 | 1.6 | 6.4 | 0.00 | 0.30 | 0.05 | 74 | 1013.0 |
| 20260503001548 | 3 | 315 | 1.6 | 6.4 | 0.00 | 0.30 | 0.05 | 74 | 1013.0 |
| 20260503001025 | 3 | 311 | 1.6 | 4.8 | 0.00 | 0.30 | 0.05 | 74 | 1013.0 |
| 20260503000522 | 3 | 328 | 1.6 | 6.4 | 0.00 | 0.30 | 0.05 | 73 | 1013.0 |
| 20260503000111 | 3 | 329 | 1.6 | 6.4 | 0.00 | 0.30 | 0.05 | 72 | 1012.9 |
| 20260502235524 | 3 | 314 | 1.6 | 14.5 | 0.00 | 0.30 | 0.05 | 71 | 1012.9 |
| 20260502235024 | 3 | 311 | 1.6 | 14.5 | 0.00 | 0.30 | 0.05 | 71 | 1012.9 |
| 20260502234539 | 3 | 298 | 3.2 | 14.5 | 0.00 | 0.30 | 0.05 | 70 | 1012.9 |
| 20260502234023 | 3 | 306 | 3.2 | 14.5 | 0.00 | 0.30 | 0.05 | 71 | 1012.8 |
| 20260502233524 | 4 | 300 | 1.6 | 6.4 | 0.00 | 0.30 | 0.05 | 72 | 1012.7 |
| 20260502233038 | 4 | 0 | 3.2 | 9.7 | 0.00 | 0.30 | 0.05 | 71 | 1012.7 |
| 20260502232524 | 4 | 348 | 1.6 | 9.7 | 0.00 | 0.30 | 0.05 | 71 | 1012.7 |
| 20260502232024 | 4 | 313 | 3.2 | 9.7 | 0.00 | 0.30 | 0.05 | 70 | 1012.6 |
| 20260502231547 | 4 | 312 | 0.0 | 17.7 | 0.00 | 0.30 | 0.05 | 70 | 1012.6 |
| 20260502231023 | 4 | 288 | 4.8 | 17.7 | 0.00 | 0.30 | 0.05 | 69 | 1012.6 |
| 20260502230523 | 5 | 304 | 4.8 | 14.5 | 0.00 | 0.30 | 0.05 | 69 | 1012.6 |
| 20260502230037 | 5 | 319 | 6.4 | 20.9 | 0.00 | 0.30 | 0.05 | 67 | 1012.5 |
| 20260502225523 | 5 | 315 | 4.8 | 20.9 | 0.00 | 0.30 | 0.05 | 69 | 1012.5 |
| 20260502225024 | 5 | 288 | 4.8 | 20.9 | 0.00 | 0.30 | 0.05 | 70 | 1012.6 |
| 20260502224554 | 5 | 43 | 1.6 | 6.4 | 0.00 | 0.30 | 0.05 | 71 | 1012.5 |
| 20260502224026 | 5 | 360 | 3.2 | 8.0 | 0.00 | 0.30 | 0.05 | 71 | 1012.5 |
| 20260502223523 | 5 | 323 | 3.2 | 11.3 | 0.00 | 0.30 | 0.05 | 71 | 1012.5 |
| 20260502223042 | 5 | 325 | 3.2 | 11.3 | 0.00 | 0.30 | 0.05 | 70 | 1012.5 |
| 20260502222522 | 5 | 352 | 3.2 | 14.5 | 0.00 | 0.30 | 0.05 | 69 | 1012.5 |
| 20260502222025 | 5 | 275 | 3.2 | 14.5 | 0.00 | 0.30 | 0.05 | 69 | 1012.5 |
| 20260502221540 | 5 | 282 | 3.2 | 11.3 | 0.00 | 0.30 | 0.05 | 69 | 1012.4 |
| 20260502221023 | 5 | 315 | 3.2 | 11.3 | 0.00 | 0.30 | 0.05 | 69 | 1012.4 |
| 20260502220525 | 5 | 301 | 1.6 | 9.7 | 0.00 | 0.30 | 0.05 | 70 | 1012.4 |
| 20260502220045 | 5 | 302 | 3.2 | 9.7 | 0.00 | 0.30 | 0.05 | 68 | 1012.4 |
| 20260502215524 | 5 | 9 | 3.2 | 9.7 | 0.00 | 0.30 | 0.05 | 67 | 1012.4 |
| 20260502215023 | 5 | 351 | 3.2 | 8.0 | 0.00 | 0.30 | 0.05 | 69 | 1012.4 |
| 20260502214547 | 6 | 313 | 3.2 | 9.7 | 0.00 | 0.30 | 0.05 | 67 | 1012.4 |
| 20260502214027 | 6 | 338 | 3.2 | 9.7 | 0.00 | 0.30 | 0.05 | 67 | 1012.3 |
| 20260502213524 | 6 | 350 | 3.2 | 11.3 | 0.00 | 0.30 | 0.05 | 68 | 1012.3 |
| 20260502213045 | 6 | 360 | 3.2 | 11.3 | 0.00 | 0.30 | 0.05 | 64 | 1012.4 |
| 20260502212524 | 6 | 326 | 3.2 | 8.0 | 0.00 | 0.30 | 0.05 | 67 | 1012.3 |
| 20260502212027 | 6 | 344 | 3.2 | 12.9 | 0.00 | 0.30 | 0.05 | 66 | 1012.3 |
| 20260502211540 | 6 | 344 | 3.2 | 12.9 | 0.00 | 0.30 | 0.05 | 65 | 1012.2 |
| 20260502211023 | 6 | 291 | 3.2 | 12.9 | 0.00 | 0.30 | 0.05 | 63 | 1012.3 |
| 20260502210525 | 6 | 18 | 1.6 | 12.9 | 0.00 | 0.30 | 0.05 | 61 | 1012.2 |
| 20260502210038 | 6 | 268 | 6.4 | 12.9 | 0.00 | 0.30 | 0.05 | 62 | 1012.4 |
| 20260502205527 | 5 | 313 | 4.8 | 16.1 | 0.00 | 0.30 | 0.05 | 62 | 1012.3 |
| 20260502205025 | 5 | 309 | 3.2 | 20.9 | 0.00 | 0.30 | 0.05 | 61 | 1012.3 |
| 20260502204549 | 5 | 310 | 6.4 | 20.9 | 0.00 | 0.30 | 0.05 | 59 | 1012.2 |
| 20260502204025 | 6 | 277 | 9.7 | 24.1 | 0.00 | 0.30 | 0.05 | 58 | 1012.2 |
| 20260502203525 | 6 | 290 | 4.8 | 24.1 | 0.00 | 0.30 | 0.05 | 60 | 1012.2 |
| 20260502203038 | 6 | 284 | 8.0 | 17.7 | 0.00 | 0.30 | 0.05 | 59 | 1012.3 |
| 20260502202524 | 6 | 298 | 8.0 | 19.3 | 0.00 | 0.30 | 0.05 | 57 | 1012.3 |
| 20260502202024 | 6 | 249 | 8.0 | 24.1 | 0.00 | 0.30 | 0.05 | 57 | 1012.4 |
| 20260502201541 | 6 | 306 | 11.3 | 24.1 | 0.00 | 0.30 | 0.05 | 56 | 1012.3 |
| 20260502201024 | 6 | 292 | 11.3 | 22.5 | 0.00 | 0.30 | 0.05 | 57 | 1012.3 |
| 20260502200524 | 6 | 288 | 8.0 | 24.1 | 0.00 | 0.30 | 0.05 | 59 | 1012.3 |
| 20260502200043 | 6 | 273 | 12.9 | 25.7 | 0.00 | 0.30 | 0.05 | 56 | 1012.4 |
| 20260502195522 | 6 | 256 | 11.3 | 25.7 | 0.00 | 0.30 | 0.05 | 56 | 1012.4 |
| 20260502195023 | 6 | 250 | 11.3 | 24.1 | 0.00 | 0.30 | 0.05 | 55 | 1012.4 |
| 20260502194537 | 6 | 316 | 4.8 | 24.1 | 0.00 | 0.30 | 0.05 | 58 | 1012.5 |
| 20260502194024 | 6 | 308 | 12.9 | 24.1 | 0.00 | 0.30 | 0.05 | 56 | 1012.5 |
| 20260502193526 | 6 | 309 | 6.4 | 27.4 | 0.00 | 0.30 | 0.05 | 58 | 1012.6 |
| 20260502193047 | 6 | 284 | 12.9 | 27.4 | 0.00 | 0.30 | 0.05 | 54 | 1012.7 |
| 20260502192524 | 6 | 268 | 8.0 | 24.1 | 0.00 | 0.30 | 0.05 | 54 | 1012.7 |
| 20260502192020 | 6 | 315 | 6.4 | 24.1 | 0.00 | 0.30 | 0.05 | 56 | 1012.7 |
| 20260502191554 | 6 | 257 | 3.2 | 12.9 | 0.00 | 0.30 | 0.05 | 59 | 1012.6 |
| 20260502191028 | 6 | 347 | 3.2 | 14.5 | 0.00 | 0.30 | 0.05 | 58 | 1012.8 |
| 20260502190528 | 6 | 343 | 4.8 | 17.7 | 0.00 | 0.30 | 0.05 | 58 | 1012.7 |
| 20260502190044 | 6 | 286 | 4.8 | 17.7 | 0.00 | 0.30 | 0.05 | 58 | 1012.8 |
| 20260502185524 | 6 | 281 | 4.8 | 20.9 | 0.00 | 0.30 | 0.05 | 58 | 1012.8 |
| 20260502185025 | 6 | 274 | 6.4 | 20.9 | 0.00 | 0.30 | 0.05 | 56 | 1012.8 |
| 20260502184543 | 6 | 282 | 12.9 | 20.9 | 0.00 | 0.30 | 0.05 | 54 | 1012.8 |
| 20260502184024 | 6 | 266 | 9.7 | 17.7 | 0.00 | 0.30 | 0.05 | 56 | 1012.7 |
| 20260502183524 | 6 | 300 | 8.0 | 19.3 | 0.00 | 0.30 | 0.05 | 55 | 1012.8 |
| 20260502183039 | 6 | 234 | 11.3 | 22.5 | 0.00 | 0.30 | 0.05 | 53 | 1012.8 |
| 20260502182524 | 7 | 298 | 8.0 | 22.5 | 0.00 | 0.30 | 0.05 | 54 | 1012.8 |
| 20260502182025 | 6 | 325 | 9.7 | 22.5 | 0.00 | 0.30 | 0.05 | 57 | 1012.7 |
| 20260502181542 | 6 | 266 | 11.3 | 22.5 | 0.00 | 0.30 | 0.05 | 55 | 1012.8 |
| 20260502181024 | 6 | 284 | 6.4 | 17.7 | 0.00 | 0.30 | 0.05 | 57 | 1012.7 |
| 20260502180524 | 6 | 314 | 4.8 | 17.7 | 0.00 | 0.30 | 0.05 | 56 | 1012.7 |
| 20260502164023 | 6 | 344 | 6.4 | 14.5 | 0.00 | 0.30 | 0.05 | 60 | 1012.7 |
| 20260502163524 | 6 | 325 | 6.4 | 14.5 | 0.00 | 0.30 | 0.05 | 63 | 1012.8 |
| 20260502163048 | 7 | 336 | 4.8 | 17.7 | 0.00 | 0.30 | 0.05 | 62 | 1012.8 |
| 20260502162524 | 7 | 360 | 6.4 | 17.7 | 0.00 | 0.30 | 0.05 | 63 | 1012.8 |
| 20260502162022 | 7 | 342 | 4.8 | 20.9 | 0.00 | 0.30 | 0.05 | 67 | 1012.9 |
| 20260502161557 | 7 | 355 | 4.8 | 20.9 | 0.00 | 0.30 | 0.05 | 67 | 1013.0 |
| 20260502161031 | 7 | 326 | 4.8 | 17.7 | 0.00 | 0.30 | 0.05 | 62 | 1012.8 |
| 20260502160524 | 7 | 299 | 4.8 | 17.7 | 0.00 | 0.30 | 0.05 | 69 | 1012.9 |
| 20260502152025 | 6 | 322 | 4.8 | 22.5 | 0.00 | 0.30 | 0.05 | 67 | 1013.0 |
| 20260502151549 | 6 | 11 | 4.8 | 22.5 | 0.00 | 0.30 | 0.05 | 70 | 1013.1 |
| 20260502151023 | 6 | 275 | 3.2 | 14.5 | 0.00 | 0.30 | 0.05 | 68 | 1013.1 |
| 20260502150524 | 6 | 328 | 6.4 | 19.3 | 0.00 | 0.30 | 0.05 | 72 | 1013.0 |
| 20260502130522 | 3 | 277 | 6.4 | 20.9 | 0.00 | 0.30 | 0.05 | 80 | 1013.2 |
| 20260502130104 | 3 | 297 | 4.8 | 17.7 | 0.00 | 0.30 | 0.05 | 81 | 1013.3 |
| 20260502123524 | 3 | 255 | 6.4 | 27.4 | 0.00 | 0.30 | 0.05 | 86 | 1013.2 |
| 20260502123108 | 2 | 298 | 6.4 | 27.4 | 0.00 | 0.30 | 0.05 | 87 | 1013.2 |
| 20260502122524 | 2 | 294 | 6.4 | 20.9 | 0.00 | 0.30 | 0.05 | 87 | 1013.2 |
| 20260502122030 | 3 | 274 | 4.8 | 16.1 | 0.00 | 0.30 | 0.05 | 89 | 1013.2 |
| 20260502121545 | 3 | 292 | 4.8 | 12.9 | 0.00 | 0.30 | 0.05 | 90 | 1013.2 |
| 20260502121025 | 3 | 0 | 3.2 | 11.3 | 0.00 | 0.30 | 0.05 | 91 | 1013.1 |
| 20260502120525 | 3 | 264 | 3.2 | 11.3 | 0.00 | 0.30 | 0.05 | 93 | 1013.1 |
| 20260502115525 | 3 | 0 | 3.2 | 9.7 | 0.00 | 0.30 | 0.05 | 92 | 1013.1 |
| 20260502115022 | 2 | 0 | 3.2 | 9.7 | 0.00 | 0.30 | 0.05 | 92 | 1013.1 |
| 20260502114545 | 3 | 289 | 1.6 | 4.8 | 0.00 | 0.30 | 0.05 | 93 | 1013.1 |
| 20260502114024 | 2 | 284 | 1.6 | 6.4 | 0.00 | 0.30 | 0.05 | 93 | 1013.1 |
| 20260502113522 | 2 | 302 | 1.6 | 6.4 | 0.00 | 0.30 | 0.05 | 92 | 1013.1 |
| 20260502113039 | 2 | 299 | 0.0 | 6.4 | 0.00 | 0.30 | 0.05 | 93 | 1013.1 |
| 20260502112523 | 2 | 315 | 1.6 | 6.4 | 0.00 | 0.30 | 0.05 | 93 | 1013.0 |
| 20260502112023 | 2 | 276 | 1.6 | 6.4 | 0.00 | 0.30 | 0.05 | 93 | 1013.1 |
| 20260502111545 | 2 | 320 | 1.6 | 6.4 | 0.00 | 0.30 | 0.05 | 93 | 1013.0 |
| 20260502111021 | 2 | 302 | 0.0 | 6.4 | 0.00 | 0.30 | 0.05 | 93 | 1012.9 |
| 20260502110524 | 2 | 286 | 1.6 | 6.4 | 0.00 | 0.30 | 0.05 | 93 | 1012.8 |
| 20260502110045 | 2 | 301 | 1.6 | 9.7 | 0.00 | 0.30 | 0.05 | 93 | 1012.7 |
| 20260502105521 | 2 | 0 | 0.0 | 9.7 | 0.00 | 0.30 | 0.05 | 93 | 1012.8 |
| 20260502105024 | 2 | 301 | 1.6 | 4.8 | 0.00 | 0.30 | 0.05 | 94 | 1012.7 |
| 20260502104542 | 2 | 302 | 1.6 | 6.4 | 0.00 | 0.30 | 0.05 | 93 | 1012.8 |
| 20260502104021 | 2 | 305 | 1.6 | 6.4 | 0.00 | 0.30 | 0.05 | 93 | 1012.7 |
| 20260502103522 | 2 | 290 | 3.2 | 6.4 | 0.00 | 0.30 | 0.05 | 93 | 1012.7 |
| 20260502103039 | 2 | 288 | 1.6 | 6.4 | 0.00 | 0.30 | 0.05 | 94 | 1012.7 |
| 20260502102521 | 2 | 299 | 1.6 | 8.0 | 0.00 | 0.30 | 0.05 | 94 | 1012.6 |
| 20260502102032 | 2 | 319 | 3.2 | 9.7 | 0.00 | 0.30 | 0.05 | 94 | 1012.5 |
| 20260502101548 | 2 | 278 | 4.8 | 9.7 | 0.00 | 0.30 | 0.05 | 94 | 1012.5 |
| 20260502101021 | 2 | 280 | 1.6 | 6.4 | 0.00 | 0.30 | 0.05 | 94 | 1012.5 |
| 20260502100521 | 2 | 291 | 1.6 | 6.4 | 0.00 | 0.30 | 0.05 | 94 | 1012.3 |
| 20260502091023 | 2 | 0 | 0.0 | 1.6 | 0.00 | 0.30 | 0.05 | 94 | 1011.9 |
| 20260502090523 | 2 | 0 | 0.0 | 1.6 | 0.00 | 0.30 | 0.05 | 94 | 1011.9 |
| 20260502071024 | 2 | 0 | 0.0 | 4.8 | 0.00 | 0.30 | 0.05 | 93 | 1011.8 |
| 20260502070523 | 2 | 0 | 0.0 | 4.8 | 0.00 | 0.30 | 0.05 | 93 | 1011.7 |
| 20260502070038 | 2 | 296 | 1.6 | 4.8 | 0.00 | 0.30 | 0.05 | 93 | 1011.8 |
| 20260502065522 | 2 | 296 | 0.0 | 3.2 | 0.00 | 0.30 | 0.05 | 93 | 1011.9 |
| 20260502065023 | 2 | 296 | 1.6 | 4.8 | 0.00 | 0.30 | 0.05 | 93 | 1012.0 |
| 20260502064544 | 2 | 296 | 1.6 | 4.8 | 0.00 | 0.30 | 0.05 | 93 | 1011.9 |
| 20260502064023 | 2 | 296 | 1.6 | 4.8 | 0.00 | 0.30 | 0.05 | 93 | 1011.9 |
| 20260502063527 | 2 | 318 | 1.6 | 4.8 | 0.00 | 0.30 | 0.05 | 93 | 1011.8 |
| 20260502063049 | 2 | 340 | 0.0 | 4.8 | 0.00 | 0.30 | 0.05 | 93 | 1011.6 |
| 20260502062524 | 2 | 340 | 1.6 | 4.8 | 0.00 | 0.30 | 0.05 | 93 | 1011.4 |
| 20260502062020 | 2 | 312 | 1.6 | 4.8 | 0.00 | 0.30 | 0.05 | 93 | 1011.5 |
| 20260502061539 | 2 | 286 | 1.6 | 3.2 | 0.00 | 0.30 | 0.05 | 94 | 1011.7 |
| 20260502061023 | 2 | 304 | 1.6 | 6.4 | 0.03 | 0.30 | 0.05 | 93 | 1011.7 |
| 20260502060525 | 2 | 304 | 0.0 | 6.4 | 0.03 | 0.30 | 0.05 | 93 | 1011.9 |
| 20260502060040 | 2 | 26 | 1.6 | 6.4 | 0.03 | 0.30 | 0.05 | 93 | 1011.9 |
| 20260502055525 | 2 | 0 | 1.6 | 6.4 | 0.03 | 0.30 | 0.05 | 93 | 1011.9 |
| 20260502055028 | 2 | 337 | 1.6 | 4.8 | 0.03 | 0.30 | 0.05 | 93 | 1011.7 |
| 20260502054544 | 2 | 344 | 1.6 | 4.8 | 0.03 | 0.30 | 0.05 | 93 | 1011.7 |
| 20260502054025 | 2 | 355 | 1.6 | 4.8 | 0.03 | 0.30 | 0.05 | 93 | 1011.8 |
| 20260502053525 | 2 | 352 | 1.6 | 8.0 | 0.03 | 0.30 | 0.05 | 93 | 1011.7 |
| 20260502053043 | 2 | 341 | 1.6 | 8.0 | 0.03 | 0.30 | 0.05 | 93 | 1011.9 |
| 20260502052525 | 2 | 342 | 3.2 | 8.0 | 0.03 | 0.30 | 0.05 | 93 | 1012.0 |
| 20260502052025 | 2 | 342 | 1.6 | 6.4 | 0.03 | 0.30 | 0.05 | 93 | 1012.0 |
| 20260502051541 | 2 | 326 | 1.6 | 6.4 | 0.03 | 0.30 | 0.05 | 93 | 1012.0 |